WX1N Weather Reports


Display with metric or nautical units.
time (UTC)temp
F
wind
direction
speed
MPH
gust
MPH
rain 1hr
in
rain 24hr
in
rain mn
in
humidity
%
barometer
mb
20260904175003 84 0 0.0 0.0 0.00 0.00 0.00 51 1009.0
20260904174503 85 0 0.0 0.0 0.00 0.00 0.00 50 1008.9
20260904174004 86 0 0.0 0.0 0.00 0.00 0.00 52 1008.8
20260904173504 86 0 0.0 0.0 0.00 0.00 0.00 51 1008.7
20260904173003 86 0 0.0 0.0 0.00 0.00 0.00 50 1008.7
20260904172503 86 0 0.0 0.0 0.00 0.00 0.00 52 1008.8
20260904172003 86 0 0.0 0.0 0.00 0.00 0.00 53 1008.9
20260904171503 85 0 0.0 0.0 0.00 0.00 0.00 53 1009.0
20260904171003 84 0 0.0 0.0 0.00 0.00 0.00 58 1009.1
20260904170503 83 0 0.0 0.0 0.00 0.00 0.00 57 1009.2
20260904170003 82 0 0.0 0.0 0.00 0.00 0.00 57 1009.1
20260904165503 81 0 0.0 0.0 0.00 0.00 0.00 62 1009.1
20260904165003 81 0 0.0 0.0 0.00 0.00 0.00 62 1009.3
20260904164503 82 0 0.0 0.0 0.00 0.00 0.00 57 1009.3
20260904164003 83 0 0.0 0.0 0.00 0.00 0.00 61 1009.2
20260904163503 83 0 0.0 0.0 0.00 0.00 0.00 67 1009.3
20260904163004 82 0 0.0 0.0 0.00 0.00 0.00 63 1009.4
20260904162504 82 0 0.0 0.0 0.00 0.00 0.00 64 1009.5
20260904162003 83 0 0.0 0.0 0.00 0.00 0.00 64 1009.5
20260904161503 84 0 0.0 0.0 0.00 0.00 0.00 61 1009.5
20260904161003 84 0 0.0 0.0 0.00 0.00 0.00 60 1009.5
20260904160503 84 0 0.0 0.0 0.00 0.00 0.00 58 1009.6
20260904160003 84 0 0.0 0.0 0.00 0.00 0.00 64 1009.6
20260904155503 83 0 0.0 0.0 0.00 0.00 0.00 65 1009.7
20260904155003 82 0 0.0 0.0 0.00 0.00 0.00 65 1009.7
20260904154503 81 0 0.0 0.0 0.00 0.00 0.00 69 1009.7
20260904154003 80 0 0.0 0.0 0.00 0.00 0.00 68 1009.7
20260904153504 80 0 0.0 0.0 0.00 0.00 0.00 73 1009.7
20260904153003 79 0 0.0 0.0 0.00 0.00 0.00 72 1009.9
20260904152504 78 0 0.0 0.0 0.00 0.00 0.00 72 1010.0
20260904152004 77 0 0.0 0.0 0.00 0.00 0.00 78 1010.0
20260904151503 76 0 0.0 0.0 0.00 0.00 0.00 76 1010.1
20260904151003 75 0 0.0 0.0 0.00 0.00 0.00 79 1010.1
20260904150503 74 0 0.0 0.0 0.00 0.00 0.00 77 1010.1
20260904150003 74 0 0.0 0.0 0.00 0.00 0.00 79 1010.0
20260904145503 73 0 0.0 0.0 0.00 0.00 0.00 79 1010.1
20260904145004 73 0 0.0 0.0 0.00 0.00 0.00 79 1010.1
20260904144504 72 0 0.0 0.0 0.00 0.00 0.00 77 1010.1
20260904144004 72 0 0.0 0.0 0.00 0.00 0.00 76 1010.2
20260904143503 72 0 0.0 0.0 0.00 0.00 0.00 74 1010.2
20260904143003 71 0 0.0 0.0 0.00 0.00 0.00 68 1010.2
20260904142503 71 0 0.0 0.0 0.00 0.00 0.00 57 1010.2
20260904142004 70 0 0.0 0.0 0.00 0.00 0.00 50 1010.3
20260904141503 70 0 0.0 0.0 0.00 0.00 0.00 41 1010.3
20260904141003 69 0 0.0 0.0 0.00 0.00 0.00 42 1010.3
20260904140503 68 0 0.0 0.0 0.00 0.00 0.00 36 1010.4
20260904140004 68 0 0.0 0.0 0.00 0.00 0.00 31 1010.3
20260904135504 68 0 0.0 0.0 0.00 0.00 0.00 31 1010.4
20260904135004 67 0 0.0 0.0 0.00 0.00 0.00 32 1010.4
20260904134504 66 0 0.0 0.0 0.00 0.00 0.00 32 1010.4
20260904134003 66 0 0.0 0.0 0.00 0.00 0.00 32 1010.4
20260904133503 65 0 0.0 0.0 0.00 0.00 0.00 34 1010.4
20260904133003 66 0 0.0 0.0 0.00 0.00 0.00 33 1010.4
20260904132503 66 0 0.0 0.0 0.00 0.00 0.00 32 1010.5
20260904132004 66 0 0.0 0.0 0.00 0.00 0.00 32 1010.5
20260904131504 66 0 0.0 0.0 0.00 0.00 0.00 32 1010.5
20260904131004 65 0 0.0 0.0 0.00 0.00 0.00 32 1010.5
20260904130504 65 0 0.0 0.0 0.00 0.00 0.00 32 1010.6
20260904130004 65 0 0.0 0.0 0.00 0.00 0.00 32 1010.7
20260904125504 65 0 0.0 0.0 0.00 0.00 0.00 32 1010.6
20260904125004 64 0 0.0 0.0 0.00 0.00 0.00 33 1010.7
20260904124503 64 0 0.0 0.0 0.00 0.00 0.00 33 1010.7
20260904124003 64 0 0.0 0.0 0.00 0.00 0.00 33 1010.7
20260904123503 64 0 0.0 0.0 0.00 0.00 0.00 33 1010.7
20260904123003 64 0 0.0 0.0 0.00 0.00 0.00 33 1010.7
20260904122503 64 0 0.0 0.0 0.00 0.00 0.00 33 1010.6
20260904122004 64 0 0.0 0.0 0.00 0.00 0.00 34 1010.6
20260904121504 64 0 0.0 0.0 0.00 0.00 0.00 34 1010.5
20260904121004 64 0 0.0 0.0 0.00 0.00 0.00 34 1010.5
20260904120504 64 0 0.0 0.0 0.00 0.00 0.00 34 1010.5
20260904120003 64 0 0.0 0.0 0.00 0.00 0.00 34 1010.5
20260904115503 64 0 0.0 0.0 0.00 0.00 0.00 34 1010.5
20260904115003 64 0 0.0 0.0 0.00 0.00 0.00 34 1010.5
20260904114503 63 0 0.0 0.0 0.00 0.00 0.00 34 1010.5
20260904114004 63 0 0.0 0.0 0.00 0.00 0.00 34 1010.4
20260904113504 63 0 0.0 0.0 0.00 0.00 0.00 35 1010.4
20260904113004 63 0 0.0 0.0 0.00 0.00 0.00 35 1010.3
20260904112504 63 0 0.0 0.0 0.00 0.00 0.00 35 1010.2
20260904112004 63 0 0.0 0.0 0.00 0.00 0.00 35 1010.2
20260904111504 62 0 0.0 0.0 0.00 0.00 0.00 35 1010.2
20260904111003 62 0 0.0 0.0 0.00 0.00 0.00 36 1010.1
20260904110503 62 0 0.0 0.0 0.00 0.00 0.00 36 1010.0
20260904110003 62 0 0.0 0.0 0.00 0.00 0.00 36 1010.0
20260904105503 62 0 0.0 0.0 0.00 0.00 0.00 36 1010.0
20260904105003 62 0 0.0 0.0 0.00 0.00 0.00 36 1010.0
20260904104504 62 0 0.0 0.0 0.00 0.00 0.00 36 1010.0
20260904104004 62 0 0.0 0.0 0.00 0.00 0.00 36 1009.9
20260904103504 62 0 0.0 0.0 0.00 0.00 0.00 36 1009.9
20260904103003 62 0 0.0 0.0 0.00 0.00 0.00 36 1009.9
20260904102503 62 0 0.0 0.0 0.00 0.00 0.00 36 1009.9
20260904102003 62 0 0.0 0.0 0.00 0.00 0.00 36 1009.8
20260904101503 62 0 0.0 0.0 0.00 0.00 0.00 36 1009.8
20260904101004 62 0 0.0 0.0 0.00 0.00 0.00 36 1009.8
20260904100503 62 0 0.0 0.0 0.00 0.00 0.00 36 1009.7
20260904100004 63 0 0.0 0.0 0.00 0.00 0.00 36 1009.8
20260904095504 63 0 0.0 0.0 0.00 0.00 0.00 35 1009.7
20260904095004 63 0 0.0 0.0 0.00 0.00 0.00 35 1009.6
20260904094504 63 0 0.0 0.0 0.00 0.00 0.00 35 1009.7
20260904094004 63 0 0.0 0.0 0.00 0.00 0.00 35 1009.7
20260904093503 64 0 0.0 0.0 0.00 0.00 0.00 35 1009.7
20260904093003 64 0 0.0 0.0 0.00 0.00 0.00 35 1009.6
20260904092503 64 0 0.0 0.0 0.00 0.00 0.00 35 1009.6
20260904092003 64 0 0.0 0.0 0.00 0.00 0.00 35 1009.7
20260904091503 63 0 0.0 0.0 0.00 0.00 0.00 35 1009.7
20260904091003 63 0 0.0 0.0 0.00 0.00 0.00 35 1009.7
20260904090504 63 0 0.0 0.0 0.00 0.00 0.00 35 1009.8
20260904090004 63 0 0.0 0.0 0.00 0.00 0.00 36 1009.7
20260904085504 63 0 0.0 0.0 0.00 0.00 0.00 36 1009.7
20260904085004 63 0 0.0 0.0 0.00 0.00 0.00 36 1009.6
20260904084504 63 0 0.0 0.0 0.00 0.00 0.00 36 1009.7
20260904084004 63 0 0.0 0.0 0.00 0.00 0.00 36 1009.8
20260904083503 63 0 0.0 0.0 0.00 0.00 0.00 36 1009.7
20260904083003 63 0 0.0 0.0 0.00 0.00 0.00 36 1009.7
20260904082503 63 0 0.0 0.0 0.00 0.00 0.00 37 1009.6
20260904082003 63 0 0.0 0.0 0.00 0.00 0.00 37 1009.6
20260904081504 63 0 0.0 0.0 0.00 0.00 0.00 37 1009.7
20260904081003 62 0 0.0 0.0 0.00 0.00 0.00 37 1009.6
20260904080503 62 0 0.0 0.0 0.00 0.00 0.00 37 1009.6
20260904080004 62 0 0.0 0.0 0.00 0.00 0.00 37 1009.6
20260904075504 62 0 0.0 0.0 0.00 0.00 0.00 38 1009.5
20260904075004 62 0 0.0 0.0 0.00 0.00 0.00 38 1009.5
20260904074503 63 0 0.0 0.0 0.00 0.00 0.00 38 1009.6
20260904074003 63 0 0.0 0.0 0.00 0.00 0.00 37 1009.6
20260904073503 63 0 0.0 0.0 0.00 0.00 0.00 37 1009.6
20260904073003 64 0 0.0 0.0 0.00 0.00 0.00 36 1009.7
20260904072504 64 0 0.0 0.0 0.00 0.00 0.00 36 1009.6
20260904072004 64 0 0.0 0.0 0.00 0.00 0.00 36 1009.7
20260904071504 64 0 0.0 0.0 0.00 0.00 0.00 36 1009.7
20260904071004 64 0 0.0 0.0 0.00 0.00 0.00 37 1009.7
20260904070504 64 0 0.0 0.0 0.00 0.00 0.00 37 1009.7
20260904070003 64 0 0.0 0.0 0.00 0.00 0.00 37 1009.7
20260904065504 64 0 0.0 0.0 0.00 0.00 0.00 36 1009.7
20260904065004 64 0 0.0 0.0 0.00 0.00 0.00 36 1009.8
20260904064504 64 0 0.0 0.0 0.00 0.00 0.00 36 1009.8
20260904064004 64 0 0.0 0.0 0.00 0.00 0.00 36 1009.9
20260904063504 64 0 0.0 0.0 0.00 0.00 0.00 36 1009.9
20260904063004 64 0 0.0 0.0 0.00 0.00 0.00 36 1009.9
20260904062504 64 0 0.0 0.0 0.00 0.00 0.00 36 1010.0
20260904062003 64 0 0.0 0.0 0.00 0.00 0.00 36 1010.0
20260904061503 64 0 0.0 0.0 0.00 0.00 0.00 36 1010.1
20260904061004 64 0 0.0 0.0 0.00 0.00 0.00 37 1010.1
20260904060503 64 0 0.0 0.0 0.00 0.00 0.00 37 1010.1
20260904060004 64 0 0.0 0.0 0.00 0.00 0.00 37 1010.1
20260904055504 64 0 0.0 0.0 0.00 0.00 0.00 37 1010.2
20260904055004 64 0 0.0 0.0 0.00 0.00 0.00 37 1010.2
20260904054504 64 0 0.0 0.0 0.00 0.00 0.00 37 1010.4
20260904054004 64 0 0.0 0.0 0.00 0.00 0.00 38 1010.5
20260904053503 63 0 0.0 0.0 0.00 0.00 0.00 38 1010.6
20260904053003 63 0 0.0 0.0 0.00 0.00 0.00 38 1010.5
20260904052503 63 0 0.0 0.0 0.00 0.00 0.00 38 1010.6
20260904052004 63 0 0.0 0.0 0.00 0.00 0.00 38 1010.6
20260904051504 63 0 0.0 0.0 0.00 0.00 0.00 38 1010.5
20260904051004 63 0 0.0 0.0 0.00 0.00 0.00 39 1010.7
20260904050504 62 0 0.0 0.0 0.00 0.00 0.00 39 1010.6
20260904050003 62 0 0.0 0.0 0.00 0.00 0.00 40 1010.7
20260904045503 62 0 0.0 0.0 0.00 0.00 0.00 40 1010.7
20260904045003 62 0 0.0 0.0 0.00 0.00 0.00 41 1010.8
20260904044504 62 0 0.0 0.0 0.00 0.00 0.00 41 1010.8
20260904044004 62 0 0.0 0.0 0.00 0.00 0.00 41 1010.7
20260904043504 62 0 0.0 0.0 0.00 0.00 0.00 41 1010.7
20260904043003 63 0 0.0 0.0 0.00 0.00 0.00 40 1010.8
20260904042503 63 0 0.0 0.0 0.00 0.00 0.00 40 1010.8
20260904042002 63 0 0.0 0.0 0.00 0.00 0.00 41 1010.8
20260904041502 63 0 0.0 0.0 0.00 0.00 0.00 40 1010.8
20260904041002 63 0 0.0 0.0 0.00 0.00 0.00 40 1010.7
20260904040502 63 0 0.0 0.0 0.00 0.00 0.00 42 1010.7
20260904040003 63 0 0.0 0.0 0.00 0.00 0.00 42 1010.6
20260904035503 63 0 0.0 0.0 0.00 0.00 0.00 41 1010.8
20260904035003 63 0 0.0 0.0 0.00 0.00 0.00 41 1010.9
20260904034503 63 0 0.0 0.0 0.00 0.00 0.00 40 1011.0
20260904034003 63 0 0.0 0.0 0.00 0.00 0.00 41 1011.0
20260904033503 63 0 0.0 0.0 0.00 0.00 0.00 41 1010.9
20260904033003 63 0 0.0 0.0 0.00 0.00 0.00 42 1010.9
20260904032503 63 0 0.0 0.0 0.00 0.00 0.00 43 1010.9
20260904032002 63 0 0.0 0.0 0.00 0.00 0.00 44 1010.9
20260904031502 63 0 0.0 0.0 0.00 0.00 0.00 45 1011.0
20260904031002 63 0 0.0 0.0 0.00 0.00 0.00 46 1011.1
20260904030502 64 0 0.0 0.0 0.00 0.00 0.00 47 1011.1
20260904030002 64 0 0.0 0.0 0.00 0.00 0.00 45 1011.1
20260904025502 64 0 0.0 0.0 0.00 0.00 0.00 44 1011.1
20260904025003 64 0 0.0 0.0 0.00 0.00 0.00 44 1011.1
20260904024503 64 0 0.0 0.0 0.00 0.00 0.00 44 1011.1
20260904024003 65 0 0.0 0.0 0.00 0.00 0.00 44 1011.2
20260904023502 65 0 0.0 0.0 0.00 0.00 0.00 43 1011.3
20260904023002 65 0 0.0 0.0 0.00 0.00 0.00 46 1011.2
20260904022502 65 0 0.0 0.0 0.00 0.00 0.00 47 1011.1
20260904022002 65 0 0.0 0.0 0.00 0.00 0.00 47 1011.0
20260904021503 66 0 0.0 0.0 0.00 0.00 0.00 47 1010.9
20260904021003 66 0 0.0 0.0 0.00 0.00 0.00 46 1011.0
20260904020503 66 0 0.0 0.0 0.00 0.00 0.00 44 1011.0
20260904020003 66 0 0.0 0.0 0.00 0.00 0.00 46 1011.1
20260904015503 66 0 0.0 0.0 0.00 0.00 0.00 49 1011.1
20260904015003 66 0 0.0 0.0 0.00 0.00 0.00 49 1011.0
20260904014502 67 0 0.0 0.0 0.00 0.00 0.00 49 1011.0
20260904014002 67 0 0.0 0.0 0.00 0.00 0.00 47 1011.1
20260904013502 68 0 0.0 0.0 0.00 0.00 0.00 46 1011.0
20260904013002 68 0 0.0 0.0 0.00 0.00 0.00 45 1011.0
20260904012503 68 0 0.0 0.0 0.00 0.00 0.00 46 1011.1
20260904012003 68 0 0.0 0.0 0.00 0.00 0.00 46 1010.9
20260904011503 68 0 0.0 0.0 0.00 0.00 0.00 47 1010.8
20260904011002 68 0 0.0 0.0 0.00 0.00 0.00 51 1010.8
20260904010502 68 0 0.0 0.0 0.00 0.00 0.00 51 1010.8
20260904010002 69 0 0.0 0.0 0.00 0.00 0.00 53 1010.8
20260904005502 69 0 0.0 0.0 0.00 0.00 0.00 53 1010.8
20260904005003 70 0 0.0 0.0 0.00 0.00 0.00 49 1010.8
20260904004503 70 0 0.0 0.0 0.00 0.00 0.00 49 1010.8
20260904004003 70 0 0.0 0.0 0.00 0.00 0.00 51 1010.7
20260904003503 70 0 0.0 0.0 0.00 0.00 0.00 52 1010.7
20260904003003 70 0 0.0 0.0 0.00 0.00 0.00 51 1010.5
20260904002503 71 0 0.0 0.0 0.00 0.00 0.00 50 1010.3
20260904002003 71 0 0.0 0.0 0.00 0.00 0.00 50 1010.1
20260904001503 71 0 0.0 0.0 0.00 0.00 0.00 50 1010.1
20260904001002 71 0 0.0 0.0 0.00 0.00 0.00 50 1010.1
20260904000502 71 0 0.0 0.0 0.00 0.00 0.00 52 1010.1
20260904000002 71 0 0.0 0.0 0.00 0.00 0.00 52 1010.1
20260903235502 71 0 0.0 0.0 0.00 0.00 0.00 53 1010.0
20260903235003 71 0 0.0 0.0 0.00 0.00 0.00 53 1009.8
20260903234503 71 0 0.0 0.0 0.00 0.00 0.00 54 1009.7
20260903234003 71 0 0.0 0.0 0.00 0.00 0.00 56 1009.7
20260903233503 71 0 0.0 0.0 0.00 0.00 0.00 59 1009.7
20260903233003 71 0 0.0 0.0 0.00 0.00 0.00 59 1009.8
20260903232503 71 0 0.0 0.0 0.00 0.00 0.00 61 1009.8
20260903232003 72 0 0.0 0.0 0.00 0.00 0.00 61 1009.9
20260903231502 72 0 0.0 0.0 0.00 0.00 0.00 62 1009.9
20260903231002 72 0 0.0 0.0 0.00 0.00 0.00 64 1010.0
20260903230502 72 0 0.0 0.0 0.00 0.00 0.00 65 1010.0
20260903230002 72 0 0.0 0.0 0.00 0.00 0.00 69 1009.9
20260903225502 72 0 0.0 0.0 0.00 0.00 0.00 71 1009.9
20260903225003 72 0 0.0 0.0 0.00 0.00 0.00 73 1009.9
20260903224503 73 0 0.0 0.0 0.00 0.00 0.00 75 1009.8
20260903224003 73 0 0.0 0.0 0.00 0.00 0.00 76 1009.9
20260903223503 73 0 0.0 0.0 0.00 0.00 0.00 77 1010.0
20260903223003 74 0 0.0 0.0 0.00 0.00 0.00 78 1009.9
20260903222503 74 0 0.0 0.0 0.00 0.00 0.00 78 1009.8
20260903222003 74 0 0.0 0.0 0.00 0.00 0.00 78 1009.9
20260903221503 74 0 0.0 0.0 0.00 0.00 0.00 79 1009.8
20260903221002 74 0 0.0 0.0 0.00 0.00 0.00 79 1010.0
20260903220502 74 0 0.0 0.0 0.00 0.00 0.00 79 1010.0
20260903220002 74 0 0.0 0.0 0.00 0.00 0.00 79 1010.2
20260903215502 74 0 0.0 0.0 0.00 0.00 0.00 80 1010.3
20260903215002 75 0 0.0 0.0 0.00 0.00 0.00 80 1010.3
20260903214503 75 0 0.0 0.0 0.00 0.00 0.00 80 1010.4
20260903214003 75 0 0.0 0.0 0.00 0.00 0.00 80 1010.5
20260903213503 75 0 0.0 0.0 0.00 0.00 0.00 80 1010.5
20260903213003 75 0 0.0 0.0 0.00 0.00 0.00 80 1010.3
20260903212503 75 0 0.0 0.0 0.00 0.00 0.00 80 1010.3
20260903212003 75 0 0.0 0.0 0.00 0.00 0.00 80 1010.4
20260903211503 75 0 0.0 0.0 0.00 0.00 0.00 80 1010.2
20260903211002 75 0 0.0 0.0 0.00 0.00 0.00 80 1010.2
20260903210502 75 0 0.0 0.0 0.00 0.00 0.00 81 1010.3
20260903210002 76 0 0.0 0.0 0.00 0.00 0.00 81 1010.2
20260903205503 76 0 0.0 0.0 0.00 0.00 0.00 81 1010.3
20260903205003 76 0 0.0 0.0 0.00 0.00 0.00 80 1010.4
20260903204503 76 0 0.0 0.0 0.00 0.00 0.00 81 1010.4
20260903204003 76 0 0.0 0.0 0.00 0.00 0.00 80 1010.3
20260903203503 76 0 0.0 0.0 0.00 0.00 0.00 80 1010.3
20260903203003 76 0 0.0 0.0 0.00 0.00 0.00 80 1010.4
20260903202502 76 0 0.0 0.0 0.00 0.00 0.00 81 1010.5
20260903202002 77 0 0.0 0.0 0.00 0.00 0.00 80 1010.5
20260903201502 77 0 0.0 0.0 0.00 0.00 0.00 80 1010.5
20260903201002 77 0 0.0 0.0 0.00 0.00 0.00 79 1010.5
20260903200503 78 0 0.0 0.0 0.00 0.00 0.00 79 1010.5
20260903200003 79 0 0.0 0.0 0.00 0.00 0.00 77 1010.6
20260903195503 79 0 0.0 0.0 0.00 0.00 0.00 77 1010.6
20260903195003 80 0 0.0 0.0 0.00 0.00 0.00 76 1010.8
20260903194503 80 0 0.0 0.0 0.00 0.00 0.00 74 1010.9
20260903194003 81 0 0.0 0.0 0.00 0.00 0.00 73 1011.0
20260903193503 82 0 0.0 0.0 0.00 0.00 0.00 71 1011.0
20260903193003 83 0 0.0 0.0 0.00 0.00 0.00 70 1010.9
20260903192503 84 0 0.0 0.0 0.00 0.00 0.00 68 1011.1
20260903192002 84 0 0.0 0.0 0.00 0.00 0.00 70 1011.1
20260903191502 84 0 0.0 0.0 0.00 0.00 0.00 69 1011.2
20260903191003 83 0 0.0 0.0 0.00 0.00 0.00 71 1011.3
20260903190503 83 0 0.0 0.0 0.00 0.00 0.00 71 1011.3
20260903190003 82 0 0.0 0.0 0.00 0.00 0.00 73 1011.3
20260903185503 82 0 0.0 0.0 0.00 0.00 0.00 74 1011.3
20260903185003 82 0 0.0 0.0 0.00 0.00 0.00 74 1011.3
20260903184503 81 0 0.0 0.0 0.00 0.00 0.00 74 1011.4
20260903184003 80 0 0.0 0.0 0.00 0.00 0.00 75 1011.4
20260903183503 79 0 0.0 0.0 0.00 0.00 0.00 76 1011.5
20260903183002 78 0 0.0 0.0 0.00 0.00 0.00 77 1011.6
20260903182503 77 0 0.0 0.0 0.00 0.00 0.00 79 1011.7
20260903182002 75 0 0.0 0.0 0.00 0.00 0.00 80 1011.7
20260903181502 74 0 0.0 0.0 0.00 0.00 0.00 80 1011.8
20260903181002 74 0 0.0 0.0 0.00 0.00 0.00 80 1011.8
20260903180503 73 0 0.0 0.0 0.00 0.00 0.00 80 1011.9
20260903180003 73 0 0.0 0.0 0.00 0.00 0.00 79 1012.0
20260903175503 72 0 0.0 0.0 0.00 0.00 0.00 80 1012.1